timestamp,surface_pressure_avg,surface_temp_avg,battery_voltage,lat,long
2017-12-16 00:00:00+00:00,311.9513,4.8,12.73,47.84626,-54.09684
2017-12-16 00:10:00+00:00,298.4997,4.8,12.73,47.84626,-54.09684
2017-12-16 00:20:00+00:00,288.3765,4.8,12.81,47.84626,-54.09684
2017-12-16 00:30:00+00:00,289.913,4.8,12.81,47.84626,-54.09684
2017-12-16 00:40:00+00:00,282.8897,4.8,12.81,47.84626,-54.09684
2017-12-16 00:50:00+00:00,264.0881,4.7,12.81,47.84626,-54.09684
2017-12-16 01:00:00+00:00,259.0548,4.7,12.73,47.84626,-54.09684
2017-12-16 01:10:00+00:00,262.7814,4.7,12.73,47.84626,-54.09684
2017-12-16 01:20:00+00:00,253.7831,4.6,12.81,47.84626,-54.09684
2017-12-16 01:30:00+00:00,241.1481,4.59,12.81,47.84626,-54.09684
2017-12-16 01:40:00+00:00,240.0564,4.58,12.81,47.84626,-54.09684
2017-12-16 01:50:00+00:00,239.3865,4.6,12.81,47.84626,-54.09684
2017-12-16 02:00:00+00:00,228.2281,4.59,12.73,47.84626,-54.09684
2017-12-16 02:10:00+00:00,221.0348,4.5,12.73,47.84626,-54.09684
2017-12-16 02:20:00+00:00,222.1248,4.6,12.81,47.84626,-54.09684
2017-12-16 02:30:00+00:00,218.9231,4.66,12.81,47.84626,-54.09684
2017-12-16 02:40:00+00:00,209.6581,4.6,12.81,47.84626,-54.09684
2017-12-16 02:50:00+00:00,211.6964,4.5,12.81,47.84626,-54.09684
2017-12-16 03:00:00+00:00,216.3831,4.6,12.73,47.84626,-54.09684
2017-12-16 03:10:00+00:00,208.2198,4.5,12.73,47.84626,-54.09684
2017-12-16 03:20:00+00:00,197.1815,4.45,12.73,47.84626,-54.09684
2017-12-16 03:30:00+00:00,199.4298,4.49,12.73,47.84626,-54.09684
2017-12-16 03:40:00+00:00,203.9464,4.5,12.81,47.84626,-54.09684
2017-12-16 03:50:00+00:00,196.7115,4.43,12.81,47.84626,-54.09684
2017-12-16 04:00:00+00:00,190.9364,4.43,12.73,47.84626,-54.09684
2017-12-16 04:10:00+00:00,194.2148,4.46,12.73,47.84626,-54.09684
2017-12-16 04:20:00+00:00,194.7998,4.4,12.73,47.84626,-54.09684
2017-12-16 04:30:00+00:00,192.5248,4.4,12.73,47.84626,-54.09684
2017-12-16 04:40:00+00:00,193.7831,4.5,12.81,47.84626,-54.09684
2017-12-16 04:50:00+00:00,195.6115,4.4,12.81,47.84626,-54.09684
2017-12-16 05:00:00+00:00,194.7198,4.36,12.73,47.84626,-54.09684
2017-12-16 05:10:00+00:00,193.1698,4.3,12.73,47.84626,-54.09684
2017-12-16 05:20:00+00:00,196.9815,4.3,12.73,47.84626,-54.09684
2017-12-16 05:30:00+00:00,201.4832,4.37,12.73,47.84626,-54.09684
2017-12-16 05:40:00+00:00,201.8831,4.4,12.73,47.84626,-54.09684
2017-12-16 05:50:00+00:00,207.7598,4.4,12.73,47.84626,-54.09684
2017-12-16 06:00:00+00:00,215.5948,4.4,12.73,47.84626,-54.09684
2017-12-16 06:10:00+00:00,218.3214,4.4,12.65,47.84626,-54.09684
2017-12-16 06:20:00+00:00,226.0014,4.4,12.73,47.84626,-54.09684
2017-12-16 06:30:00+00:00,232.4948,4.4,12.73,47.84626,-54.09684
2017-12-16 06:40:00+00:00,233.8847,4.3,12.73,47.84626,-54.09684
2017-12-16 06:50:00+00:00,237.9814,4.37,12.73,47.84626,-54.09684
2017-12-16 07:00:00+00:00,248.063,4.5,12.73,47.84626,-54.09684
2017-12-16 07:10:00+00:00,257.368,4.5,12.65,47.84626,-54.09684
2017-12-16 07:20:00+00:00,262.2564,4.5,12.73,47.84626,-54.09684
2017-12-16 07:30:00+00:00,266.8564,4.5,12.73,47.84626,-54.09684
2017-12-16 07:40:00+00:00,276.5531,4.5,12.73,47.84626,-54.09684
2017-12-16 07:50:00+00:00,286.5565,4.5,12.73,47.84626,-54.09684
2017-12-16 08:00:00+00:00,297.4097,4.52,12.73,47.84626,-54.09684
2017-12-16 08:10:00+00:00,308.4214,4.54,12.65,47.84626,-54.09684
2017-12-16 08:20:00+00:00,311.998,4.56,12.73,47.84626,-54.09684
2017-12-16 08:30:00+00:00,314.8497,4.54,12.73,47.84626,-54.09684
2017-12-16 08:40:00+00:00,329.093,4.53,12.73,47.84626,-54.09684
2017-12-16 08:50:00+00:00,337.9846,4.55,12.73,47.84626,-54.09684
2017-12-16 09:00:00+00:00,337.8729,4.5,12.65,47.84626,-54.09684
2017-12-16 09:10:00+00:00,344.0762,4.5,12.65,47.84626,-54.09684
2017-12-16 09:20:00+00:00,358.4612,4.5,12.73,47.84626,-54.09684
2017-12-16 09:30:00+00:00,357.5113,4.4,12.73,47.84626,-54.09684
2017-12-16 09:40:00+00:00,347.128,4.3,12.73,47.84626,-54.09684
2017-12-16 09:50:00+00:00,355.3196,4.37,12.73,47.84626,-54.09684
2017-12-16 10:00:00+00:00,363.3229,4.4,12.65,47.84626,-54.09684
2017-12-16 10:10:00+00:00,356.3463,4.39,12.65,47.84626,-54.09684
2017-12-16 10:20:00+00:00,351.713,4.4,12.73,47.84626,-54.09684
2017-12-16 10:30:00+00:00,357.5279,4.4,12.73,47.84626,-54.09684
2017-12-16 10:40:00+00:00,362.4229,4.39,12.73,47.84626,-54.09684
2017-12-16 10:50:00+00:00,351.5963,4.3,12.73,47.84626,-54.09684
2017-12-16 11:00:00+00:00,356.8212,4.3,12.65,47.84626,-54.09684
2017-12-16 11:10:00+00:00,368.2429,4.3,12.65,47.84626,-54.09684
2017-12-16 11:20:00+00:00,357.5579,4.1,12.73,47.84626,-54.09684
2017-12-16 11:30:00+00:00,345.9395,4.04,12.73,47.84626,-54.09684
2017-12-16 11:40:00+00:00,345.4113,4.28,12.73,47.84626,-54.09684
2017-12-16 11:50:00+00:00,348.3346,4.4,12.73,47.84626,-54.09684
2017-12-16 12:00:00+00:00,338.1296,4.3,12.65,47.84626,-54.09684
2017-12-16 12:10:00+00:00,329.5646,4.27,12.65,47.84626,-54.09684
2017-12-16 12:20:00+00:00,328.0146,4.29,12.73,47.84626,-54.09684
2017-12-16 12:30:00+00:00,321.5646,3.8,12.73,47.84626,-54.09684
2017-12-16 12:40:00+00:00,318.7679,4.2,12.73,47.84626,-54.09684
2017-12-16 12:50:00+00:00,320.418,4.3,12.73,47.84626,-54.09684
2017-12-16 13:00:00+00:00,314.7213,4.02,12.65,47.84626,-54.09684
2017-12-16 13:10:00+00:00,305.2764,3.9,12.65,47.84626,-54.09684
2017-12-16 13:20:00+00:00,298.7064,3.96,12.73,47.84626,-54.09684
2017-12-16 13:30:00+00:00,295.7081,3.94,12.73,47.84626,-54.09684
2017-12-16 13:40:00+00:00,287.5947,3.91,12.73,47.84626,-54.09684
2017-12-16 13:50:00+00:00,282.0814,3.91,12.73,47.84626,-54.09684
2017-12-16 14:00:00+00:00,277.2748,3.96,12.65,47.84626,-54.09684
2017-12-16 14:10:00+00:00,270.8464,4.0,12.65,47.84626,-54.09684
2017-12-16 14:20:00+00:00,267.8831,4.0,12.73,47.84626,-54.09684
2017-12-16 14:30:00+00:00,262.3981,4.1,12.73,47.84626,-54.09684
2017-12-16 14:40:00+00:00,255.2997,4.1,12.73,47.84626,-54.09684
2017-12-16 14:50:00+00:00,246.428,4.05,12.73,47.84626,-54.09684
2017-12-16 15:00:00+00:00,245.0998,4.2,12.65,47.84626,-54.09684
2017-12-16 15:10:00+00:00,240.0548,4.3,12.65,47.84626,-54.09684
2017-12-16 15:20:00+00:00,229.8648,4.2,12.73,47.84626,-54.09684
2017-12-16 15:30:00+00:00,225.1215,4.1,12.73,47.84626,-54.09684
2017-12-16 15:40:00+00:00,232.1797,4.1,12.73,47.84626,-54.09684
2017-12-16 15:50:00+00:00,222.0014,4.1,12.73,47.84626,-54.09684
2017-12-16 16:00:00+00:00,213.5481,4.0,12.65,47.84626,-54.09684
2017-12-16 16:10:00+00:00,227.1264,4.08,12.65,47.84626,-54.09684
2017-12-16 16:20:00+00:00,233.2048,4.1,12.65,47.84626,-54.09684
2017-12-16 16:30:00+00:00,225.3231,4.1,12.65,47.84626,-54.09684
2017-12-16 16:40:00+00:00,222.9464,4.09,12.73,47.84626,-54.09684
2017-12-16 16:50:00+00:00,228.4898,4.14,12.73,47.84626,-54.09684
2017-12-16 17:00:00+00:00,217.1164,4.05,12.65,47.84626,-54.09684
2017-12-16 17:10:00+00:00,209.5965,4.05,12.65,47.84626,-54.09684
2017-12-16 17:20:00+00:00,229.8014,4.1,12.65,47.84626,-54.09684
2017-12-16 17:30:00+00:00,242.3597,4.2,12.65,47.84626,-54.09684
2017-12-16 17:40:00+00:00,234.6798,4.32,12.73,47.84626,-54.09684
2017-12-16 17:50:00+00:00,234.7814,4.3,12.73,47.84626,-54.09684
2017-12-16 18:00:00+00:00,242.7947,4.3,12.65,47.84626,-54.09684
2017-12-16 18:10:00+00:00,249.4414,4.3,12.65,47.84626,-54.09684
2017-12-16 18:20:00+00:00,256.1064,4.24,12.65,47.84626,-54.09684
2017-12-16 18:30:00+00:00,261.5481,4.2,12.65,47.84626,-54.09684
2017-12-16 18:40:00+00:00,259.3114,4.2,12.65,47.84626,-54.09684
2017-12-16 18:50:00+00:00,259.4714,4.1,12.65,47.84626,-54.09684
2017-12-16 19:00:00+00:00,267.7447,3.6,12.65,47.84626,-54.09684
2017-12-16 19:10:00+00:00,269.1698,3.54,12.65,47.84626,-54.09684
2017-12-16 19:20:00+00:00,267.5064,3.66,12.65,47.84626,-54.09684
2017-12-16 19:30:00+00:00,279.4497,3.66,12.65,47.84626,-54.09684
2017-12-16 19:40:00+00:00,293.3697,3.76,12.65,47.84626,-54.09684
2017-12-16 19:50:00+00:00,297.1813,3.86,12.65,47.84626,-54.09684
2017-12-16 20:00:00+00:00,298.2097,4.0,12.65,47.84626,-54.09684
2017-12-16 20:10:00+00:00,296.858,4.28,12.65,47.84626,-54.09684
2017-12-16 20:20:00+00:00,307.9114,4.2,12.65,47.84626,-54.09684
2017-12-16 20:30:00+00:00,309.6597,4.4,12.65,47.84626,-54.09684
2017-12-16 20:40:00+00:00,309.3997,4.5,12.65,47.84626,-54.09684
2017-12-16 20:50:00+00:00,313.7563,4.5,12.65,47.84626,-54.09684
2017-12-16 21:00:00+00:00,321.0179,4.4,12.65,47.84626,-54.09684
2017-12-16 21:10:00+00:00,319.8047,4.32,12.57,47.84626,-54.09684
2017-12-16 21:20:00+00:00,321.293,4.57,12.65,47.84626,-54.09684
2017-12-16 21:30:00+00:00,330.8663,4.78,12.65,47.84626,-54.09684
2017-12-16 21:40:00+00:00,339.2014,4.8,12.65,47.84626,-54.09684
2017-12-16 21:50:00+00:00,334.6813,4.86,12.65,47.84626,-54.09684
2017-12-16 22:00:00+00:00,333.7496,4.97,12.65,47.84626,-54.09684
2017-12-16 22:10:00+00:00,341.3979,5.0,12.57,47.84626,-54.09684
2017-12-16 22:20:00+00:00,347.953,5.0,12.65,47.84626,-54.09684
2017-12-16 22:30:00+00:00,344.158,5.0,12.65,47.84626,-54.09684
2017-12-16 22:40:00+00:00,340.528,5.0,12.65,47.84626,-54.09684
2017-12-16 22:50:00+00:00,339.5763,5.0,12.65,47.84626,-54.09684
2017-12-16 23:00:00+00:00,330.3763,5.0,12.65,47.84626,-54.09684
2017-12-16 23:10:00+00:00,324.8097,5.07,12.57,47.84626,-54.09684
2017-12-16 23:20:00+00:00,324.3929,5.09,12.65,47.84626,-54.09684
2017-12-16 23:30:00+00:00,320.1863,5.15,12.65,47.84626,-54.09684
2017-12-16 23:40:00+00:00,312.6497,5.2,12.65,47.84626,-54.09684
2017-12-16 23:50:00+00:00,316.7447,5.18,12.65,47.84626,-54.09684
